TimeMST,TemperatureF,Dew PointF,Humidity,Sea Level PressureIn,VisibilityMPH,Wind Direction,Wind SpeedMPH,Gust SpeedMPH,PrecipitationIn,Events,Conditions,WindDirDegrees,DateUTC
12:53 AM,39.9,26.1,58,29.82,10.0,North,16.1,31.1,N/A,,Mostly Cloudy,360,2012-11-22 07:53:00
1:53 AM,42.1,15.1,34,29.86,10.0,NNW,16.1,27.6,N/A,,Mostly Cloudy,330,2012-11-22 08:53:00
2:53 AM,39.0,10.0,30,29.92,10.0,NNW,8.1,-,N/A,,Clear,340,2012-11-22 09:53:00
3:53 AM,36.0,7.0,30,29.96,10.0,Variable,5.8,-,N/A,,Clear,0,2012-11-22 10:53:00
4:53 AM,30.9,8.1,38,30.03,10.0,ENE,9.2,-,N/A,,Clear,60,2012-11-22 11:53:00
5:53 AM,33.1,12.0,42,30.06,10.0,Calm,Calm,-,N/A,,Clear,0,2012-11-22 12:53:00
6:53 AM,28.0,14.0,56,30.13,10.0,SSE,11.5,-,N/A,,Clear,150,2012-11-22 13:53:00
7:53 AM,28.9,14.0,54,30.17,10.0,ESE,8.1,-,N/A,,Clear,110,2012-11-22 14:53:00
8:53 AM,34.0,10.0,37,30.20,10.0,SE,4.6,-,N/A,,Clear,130,2012-11-22 15:53:00
9:53 AM,36.0,10.0,34,30.21,10.0,SSE,9.2,-,N/A,,Clear,150,2012-11-22 16:53:00
10:53 AM,37.9,10.0,32,30.28,10.0,South,3.5,-,N/A,,Clear,170,2012-11-22 17:53:00
11:53 AM,39.9,9.0,28,30.27,10.0,NW,5.8,-,N/A,,Clear,310,2012-11-22 18:53:00
12:53 PM,41.0,8.1,26,30.26,10.0,NW,4.6,-,N/A,,Clear,320,2012-11-22 19:53:00
1:53 PM,42.1,7.0,24,30.27,10.0,SE,6.9,-,N/A,,Clear,140,2012-11-22 20:53:00
2:53 PM,41.0,7.0,25,30.30,10.0,SSE,6.9,-,N/A,,Clear,150,2012-11-22 21:53:00
3:53 PM,39.0,8.1,28,30.33,10.0,Calm,Calm,-,N/A,,Clear,0,2012-11-22 22:53:00
4:53 PM,36.0,8.1,31,30.38,10.0,WSW,3.5,-,N/A,,Clear,250,2012-11-22 23:53:00
5:53 PM,33.1,10.0,38,30.40,10.0,South,4.6,-,N/A,,Clear,170,2012-11-23 00:53:00
6:53 PM,32.0,9.0,38,30.46,10.0,SSE,4.6,-,N/A,,Clear,150,2012-11-23 01:53:00
7:53 PM,28.9,10.0,45,30.51,10.0,SE,4.6,-,N/A,,Clear,140,2012-11-23 02:53:00
8:53 PM,28.9,10.9,47,30.51,10.0,SSE,3.5,-,N/A,,Clear,150,2012-11-23 03:53:00
9:53 PM,26.1,10.9,53,30.52,10.0,South,3.5,-,N/A,,Clear,180,2012-11-23 04:53:00
10:53 PM,26.1,10.9,53,30.51,10.0,East,3.5,-,N/A,,Clear,90,2012-11-23 05:53:00
11:53 PM,25.0,10.9,55,30.51,10.0,Calm,Calm,-,N/A,,Clear,0,2012-11-23 06:53:00